Weather History for KSZL - January, 2015

Change the Weather History Date:

Thursday, January 8, 2015

  Actual Average Record
Temperature  
Mean Temperature 16 °F -  
Max Temperature 32 °F 36 °F 66 °F (2003)
Min Temperature 0 °F 20 °F 0 °F (2015)
Degree Days  
Heating Degree Days 49    
Moisture  
Dew Point 2 °F    
Average Humidity 54    
Maximum Humidity 76    
Minimum Humidity 29    
Precipitation  
Precipitation 0.00 in - - ()
Sea Level Pressure  
Sea Level Pressure 30.36 in    
Wind  
Wind Speed 14 mph (WSW)    
Max Wind Speed 26 mph    
Max Gust Speed 37 mph    
Visibility 10 miles    
Events      
Averages and records for this station are not official NWS values.
T = Trace of Precipitation, MM = Missing Value Source: NWS Daily Summary

Daily Weather History Graph

Daily Weather History Graph

Search for Another Location

Airport or City:

Trip Planner

Search our weather history database for the weather conditions in past years. The results will help you decide how hot, cold, wet, or windy it might be!

Date:

Astronomy

Jan. 08, 2015 Rise Set
Actual Time 7:32 AM CST 5:09 PM CST
Civil Twilight 7:02 AM CST 5:38 PM CST
Nautical Twilight 6:29 AM CST 6:12 PM CST
Astronomical Twilight 5:57 AM CST 6:44 PM CST
Moon 8:46 PM CST (1/8) 9:20 AM CST (1/8)
Length of Visible Light 10h 36m
Length of Day
9h 37m
Waning Gibbous, 89% of the Moon is Illuminated
Jan 8
Waning Gibbous
Jan 13
Last Quarter
Jan 20
New
Jan 26
First Quarter
Feb 3
Full

Hourly Weather History & Observations

Time (CST) Temp. Windchill Dew Point Humidity Pressure Visibility Wind Dir Wind Speed Gust Speed Precip Events Conditions
12:58 AM 1.0 °F -11.7 °F -5.3 °F 75% 30.81 in 10.0 mi SW 6.9 mph - N/A   Clear
1:58 AM 1.0 °F -10.3 °F -5.6 °F 74% 30.78 in 10.0 mi SSW 5.8 mph - N/A   Clear
2:58 AM 0.9 °F -13.1 °F -5.1 °F 76% 30.73 in 10.0 mi South 8.1 mph - N/A   Clear
3:58 AM 2.5 °F -13.1 °F -4.4 °F 73% 30.69 in 10.0 mi SSW 10.4 mph - N/A   Scattered Clouds
4:58 AM 3.0 °F -13.3 °F -3.5 °F 74% 30.64 in 10.0 mi SSW 11.5 mph - N/A   Scattered Clouds
5:58 AM 3.2 °F -14.6 °F -4.0 °F 72% 30.55 in 10.0 mi South 13.8 mph - N/A   Partly Cloudy
6:58 AM 4.8 °F -11.8 °F -3.1 °F 70% 30.54 in 10.0 mi SW 12.7 mph - N/A   Mostly Cloudy
7:58 AM 6.4 °F -11.7 °F -1.7 °F 69% 30.48 in 10.0 mi SSW 16.1 mph - N/A   Mostly Cloudy
8:58 AM 8.6 °F -11.0 °F -0.6 °F 66% 30.41 in 10.0 mi SSW 20.7 mph - N/A   Mostly Cloudy
9:58 AM 11.7 °F -7.4 °F -0.0 °F 59% 30.33 in 10.0 mi SSW 21.9 mph - N/A   Mostly Cloudy
10:58 AM 15.8 °F -2.7 °F 0.5 °F 51% 30.26 in 10.0 mi SSW 24.2 mph 28.8 mph N/A   Mostly Cloudy
11:58 AM 20.5 °F 3.9 °F -0.6 °F 40% 30.19 in 10.0 mi SSW 23.0 mph 29.9 mph N/A   Mostly Cloudy
12:58 PM 24.4 °F 9.2 °F -1.1 °F 33% 30.13 in 10.0 mi SW 23.0 mph 33.4 mph N/A   Mostly Cloudy
1:58 PM 28.6 °F 13.8 °F -0.6 °F 29% 30.09 in 10.0 mi SW 26.5 mph 36.8 mph N/A   Scattered Clouds
2:58 PM 30.2 °F 16.2 °F 2.5 °F 31% 30.12 in 10.0 mi West 25.3 mph 31.1 mph N/A   Mostly Cloudy
3:58 PM 30.9 °F 19.1 °F 4.6 °F 33% 30.12 in 10.0 mi WSW 18.4 mph 31.1 mph N/A   Scattered Clouds
4:30 PM 30.2 °F 18.9 °F 6.8 °F 37% 30.09 in 10.0 mi West 16.1 mph 26.5 mph N/A   Overcast
4:58 PM 29.7 °F 17.8 °F 6.4 °F 38% 30.16 in 10.0 mi West 17.3 mph - N/A   Overcast
5:58 PM 29.7 °F 19.6 °F 7.2 °F 39% 30.14 in 10.0 mi West 12.7 mph - N/A   Overcast
6:58 PM 30.4 °F 21.5 °F 8.6 °F 40% 30.20 in 10.0 mi West 10.4 mph - N/A   Overcast
7:58 PM 30.6 °F 21.8 °F 10.2 °F 43% 30.22 in 10.0 mi West 10.4 mph - N/A   Overcast
8:58 PM 32.4 °F 21.7 °F 16.7 °F 53% 30.25 in 10.0 mi NW 16.1 mph 20.7 mph N/A   Overcast
9:58 PM 29.1 °F 15.4 °F 14.5 °F 55% 30.27 in 10.0 mi NNW 23.0 mph 33.4 mph N/A   Mostly Cloudy
10:58 PM 23.9 °F 9.1 °F 11.5 °F 59% 30.33 in 10.0 mi NW 20.7 mph 33.4 mph N/A   Clear
11:58 PM 20.3 °F 6.1 °F 7.7 °F 58% 30.37 in 10.0 mi NNW 16.1 mph 24.2 mph N/A   Clear